VOE2611 LFST-LFBD

Flight info

Callsign VOE2611
Flight time 1h 24m
Altitude 33000
Route AMDOQ DCT MOROK DCT GILIR DCT NINTU DCT MEBAK DCT REPSI DCT LERGA DCT MINSO DCT NARAK DCT SECHE R17 MIRBA
Aircraft A319/M-SDE3FGHIRWY/LB1

Departure

Time 2026-05-08 20:03
Airport Strasbourg Airport (LFST)

Arrival

Time 2026-05-08 21:28
Airport Bordeaux–Mérignac Airport (LFBD)
Time Latitude Longitude Altitude Speed Heading
2026-05-08 19:22 48.54265 7.62609 514 ft 0 kts 329°
2026-05-08 19:23 48.54264 7.62609 514 ft 0 kts 329°
2026-05-08 19:31 48.54264 7.62610 512 ft 0 kts 329°
2026-05-08 19:56 48.54266 7.62608 512 ft 2 kts 333°
2026-05-08 19:56 48.54279 7.62616 512 ft 2 kts 37°
2026-05-08 19:57 48.54279 7.62637 512 ft 2 kts 105°
2026-05-08 19:57 48.54266 7.62654 512 ft 3 kts 138°
2026-05-08 19:57 48.54263 7.62684 512 ft 4 kts 81°
2026-05-08 19:57 48.54279 7.62748 512 ft 9 kts 77°
2026-05-08 19:58 48.54244 7.62844 512 ft 12 kts 138°
2026-05-08 19:58 48.54181 7.62925 512 ft 12 kts 145°
2026-05-08 19:58 48.54106 7.62897 512 ft 12 kts 226°
2026-05-08 19:58 48.54048 7.62799 512 ft 13 kts 228°
2026-05-08 19:59 48.53988 7.62697 512 ft 13 kts 228°
2026-05-08 19:59 48.53925 7.62589 512 ft 14 kts 229°
2026-05-08 19:59 48.53860 7.62477 512 ft 14 kts 229°
2026-05-08 19:59 48.53793 7.62363 512 ft 15 kts 228°
2026-05-08 20:00 48.53725 7.62246 512 ft 15 kts 229°
2026-05-08 20:00 48.53654 7.62124 512 ft 16 kts 228°
2026-05-08 20:00 48.53580 7.61998 512 ft 16 kts 228°
2026-05-08 20:00 48.53505 7.61869 512 ft 17 kts 229°
2026-05-08 20:01 48.53429 7.61738 512 ft 17 kts 229°
2026-05-08 20:01 48.53350 7.61602 512 ft 17 kts 229°
2026-05-08 20:01 48.53260 7.61484 512 ft 17 kts 188°
2026-05-08 20:01 48.53167 7.61568 512 ft 16 kts 130°
2026-05-08 20:02 48.53160 7.61668 512 ft 0 kts 65°
2026-05-08 20:02 48.53168 7.61686 512 ft 4 kts 51°
2026-05-08 20:02 48.53173 7.61694 512 ft 1 kts 49°
2026-05-08 20:02 48.53183 7.61711 512 ft 6 kts 49°
2026-05-08 20:03 48.53359 7.62012 512 ft 77 kts 48°
2026-05-08 20:03 48.53868 7.62885 512 ft 143 kts 49°
2026-05-08 20:03 48.54535 7.64084 1066 ft 147 kts 50°
2026-05-08 20:03 48.55190 7.65256 1769 ft 145 kts 52°
2026-05-08 20:04 48.55837 7.66412 2488 ft 143 kts 53°
2026-05-08 20:04 48.56517 7.67634 2882 ft 165 kts 53°
2026-05-08 20:04 48.57293 7.69032 3321 ft 182 kts 53°
2026-05-08 20:04 48.58163 7.70596 3651 ft 208 kts 51°
2026-05-08 20:05 48.59187 7.72318 4074 ft 234 kts 44°
2026-05-08 20:05 48.60577 7.73754 4605 ft 258 kts 28°
2026-05-08 20:05 48.62343 7.74598 5357 ft 272 kts
2026-05-08 20:05 48.64257 7.74590 6280 ft 279 kts 350°
2026-05-08 20:06 48.66110 7.73654 7186 ft 282 kts 330°
2026-05-08 20:06 48.67650 7.71879 8150 ft 281 kts 310°
2026-05-08 20:06 48.68743 7.69442 9130 ft 280 kts 293°
2026-05-08 20:06 48.69546 7.66761 10182 ft 279 kts 291°
2026-05-08 20:07 48.70368 7.64000 10690 ft 299 kts 291°
2026-05-08 20:07 48.71234 7.61072 11154 ft 316 kts 291°
2026-05-08 20:07 48.72152 7.57992 11925 ft 322 kts 292°
2026-05-08 20:07 48.73083 7.54878 12755 ft 326 kts 292°
2026-05-08 20:08 48.73964 7.51681 13555 ft 330 kts 284°
2026-05-08 20:08 48.74214 7.48275 14262 ft 332 kts 264°
2026-05-08 20:08 48.73638 7.44885 14961 ft 335 kts 244°
2026-05-08 20:08 48.72278 7.42011 15661 ft 340 kts 224°
2026-05-08 20:09 48.70275 7.40064 16363 ft 347 kts 202°
2026-05-08 20:09 48.67937 7.39021 17078 ft 351 kts 196°
2026-05-08 20:09 48.65588 7.38076 17786 ft 355 kts 196°
2026-05-08 20:09 48.63180 7.37118 18465 ft 359 kts 196°
2026-05-08 20:10 48.60748 7.36154 19079 ft 362 kts 196°
2026-05-08 20:10 48.58297 7.35184 19714 ft 365 kts 197°
2026-05-08 20:10 48.55832 7.34200 20357 ft 368 kts 197°
2026-05-08 20:10 48.53369 7.33211 20996 ft 371 kts 197°
2026-05-08 20:11 48.50864 7.32201 21630 ft 373 kts 197°
2026-05-08 20:11 48.48339 7.31183 22257 ft 377 kts 197°
2026-05-08 20:11 48.45825 7.30176 22873 ft 379 kts 197°
2026-05-08 20:11 48.43250 7.29149 23508 ft 382 kts 197°
2026-05-08 20:12 48.40659 7.28117 24042 ft 385 kts 198°
2026-05-08 20:12 48.38050 7.27080 24525 ft 388 kts 198°
2026-05-08 20:12 48.35467 7.26054 25006 ft 391 kts 198°
2026-05-08 20:12 48.32813 7.25000 25468 ft 394 kts 199°
2026-05-08 20:13 48.30145 7.23939 25917 ft 397 kts 199°
2026-05-08 20:13 48.27485 7.22881 26372 ft 400 kts 199°
2026-05-08 20:13 48.24783 7.21804 26813 ft 403 kts 200°
2026-05-08 20:13 48.22113 7.20499 27245 ft 402 kts 208°
2026-05-08 20:14 48.19560 7.18785 27683 ft 403 kts 210°
2026-05-08 20:14 48.17014 7.17060 28093 ft 407 kts 210°
2026-05-08 20:14 48.14421 7.15303 28515 ft 410 kts 211°
2026-05-08 20:14 48.11808 7.13536 28931 ft 413 kts 211°
2026-05-08 20:15 48.09176 7.11761 29348 ft 415 kts 211°
2026-05-08 20:15 48.06531 7.09979 29733 ft 419 kts 211°
2026-05-08 20:15 48.03857 7.08175 30076 ft 422 kts 211°
2026-05-08 20:15 48.01198 7.06383 30367 ft 425 kts 211°
2026-05-08 20:16 47.98480 7.04553 30653 ft 427 kts 211°
2026-05-08 20:16 47.95788 7.02739 30961 ft 430 kts 211°
2026-05-08 20:16 47.93040 7.00893 31293 ft 433 kts 211°
2026-05-08 20:16 47.90278 6.99046 31627 ft 435 kts 211°
2026-05-08 20:17 47.87535 6.97217 31967 ft 436 kts 211°
2026-05-08 20:17 47.84767 6.95375 32381 ft 435 kts 211°
2026-05-08 20:17 47.82006 6.93541 32811 ft 434 kts 211°
2026-05-08 20:17 47.79245 6.91705 33032 ft 433 kts 211°
2026-05-08 20:18 47.76546 6.89918 33058 ft 420 kts 211°
2026-05-08 20:18 47.73910 6.88180 33058 ft 410 kts 211°
2026-05-08 20:18 47.68722 6.84737 33056 ft 406 kts 211°
2026-05-08 20:19 47.63577 6.81309 33057 ft 405 kts 211°
2026-05-08 20:19 47.58450 6.77907 33055 ft 405 kts 211°
2026-05-08 20:20 47.53320 6.74526 33059 ft 405 kts 211°
2026-05-08 20:20 47.48160 6.71129 33050 ft 405 kts 211°
2026-05-08 20:21 47.43001 6.67746 33047 ft 405 kts 211°
2026-05-08 20:21 47.38196 6.63715 33049 ft 393 kts 225°
2026-05-08 20:22 47.34079 6.58517 33051 ft 391 kts 226°
2026-05-08 20:22 47.30624 6.54178 33052 ft 392 kts 226°
2026-05-08 20:23 47.25754 6.48096 33053 ft 392 kts 226°
2026-05-08 20:23 47.21611 6.42921 33050 ft 392 kts 226°
2026-05-08 20:24 47.17445 6.37721 33047 ft 393 kts 226°
2026-05-08 20:24 47.13267 6.32518 33043 ft 393 kts 226°
2026-05-08 20:25 47.09112 6.27366 33039 ft 393 kts 225°
2026-05-08 20:25 47.04646 6.22633 33031 ft 402 kts 213°
2026-05-08 20:26 46.99689 6.18881 33032 ft 402 kts 213°
2026-05-08 20:26 46.94721 6.15092 33034 ft 402 kts 213°
2026-05-08 20:27 46.89751 6.11310 33038 ft 402 kts 213°
2026-05-08 20:27 46.84802 6.07552 33040 ft 402 kts 213°
2026-05-08 20:28 46.80657 6.04415 33045 ft 402 kts 212°
2026-05-08 20:28 46.75705 6.00681 33050 ft 403 kts 212°
2026-05-08 20:29 46.70714 5.96932 33053 ft 403 kts 212°
2026-05-08 20:29 46.65727 5.93184 33048 ft 402 kts 212°
2026-05-08 20:30 46.60773 5.89466 33049 ft 402 kts 212°
2026-05-08 20:30 46.55810 5.85755 33047 ft 403 kts 212°
2026-05-08 20:31 46.50815 5.82025 33043 ft 403 kts 211°
2026-05-08 20:31 46.45818 5.78305 33049 ft 403 kts 211°
2026-05-08 20:32 46.40855 5.74615 33044 ft 403 kts 211°
2026-05-08 20:32 46.35852 5.70906 33048 ft 403 kts 211°
2026-05-08 20:33 46.30852 5.67199 33048 ft 403 kts 211°
2026-05-08 20:33 46.25891 5.63523 33041 ft 403 kts 211°
2026-05-08 20:34 46.20890 5.59845 33035 ft 403 kts 211°
2026-05-08 20:35 46.13966 5.53278 33031 ft 395 kts 230°
2026-05-08 20:35 46.10716 5.46909 33028 ft 393 kts 237°
2026-05-08 20:36 46.07627 5.40464 33027 ft 393 kts 237°
2026-05-08 20:36 46.04490 5.33963 33024 ft 394 kts 237°
2026-05-08 20:37 46.01371 5.27518 33014 ft 394 kts 236°
2026-05-08 20:37 45.98233 5.21015 33010 ft 394 kts 236°
2026-05-08 20:38 45.95106 5.14553 33014 ft 395 kts 236°
2026-05-08 20:38 45.91972 5.08097 33027 ft 395 kts 236°
2026-05-08 20:39 45.88826 5.01637 33009 ft 396 kts 236°
2026-05-08 20:39 45.85653 4.95145 33008 ft 396 kts 235°
2026-05-08 20:40 45.82499 4.88691 33006 ft 397 kts 235°
2026-05-08 20:40 45.79315 4.82194 33007 ft 397 kts 235°
2026-05-08 20:41 45.76144 4.75746 33006 ft 397 kts 234°
2026-05-08 20:41 45.72952 4.69262 32999 ft 398 kts 234°
2026-05-08 20:42 45.69776 4.62819 33008 ft 398 kts 234°
2026-05-08 20:42 45.66569 4.56328 33006 ft 399 kts 234°
2026-05-08 20:43 45.63374 4.49873 33010 ft 400 kts 234°
2026-05-08 20:43 45.60150 4.43374 33004 ft 400 kts 234°
2026-05-08 20:44 45.56925 4.36902 33003 ft 401 kts 233°
2026-05-08 20:44 45.53677 4.30407 33004 ft 402 kts 233°
2026-05-08 20:45 45.50446 4.23943 33011 ft 402 kts 233°
2026-05-08 20:45 45.47192 4.17437 33010 ft 402 kts 233°
2026-05-08 20:46 45.43947 4.10971 33018 ft 403 kts 233°
2026-05-08 20:46 45.40672 4.04465 33025 ft 403 kts 232°
2026-05-08 20:47 45.37416 3.98029 33029 ft 403 kts 232°
2026-05-08 20:47 45.34121 3.91529 33037 ft 403 kts 232°
2026-05-08 20:48 45.30853 3.85092 33041 ft 403 kts 232°
2026-05-08 20:48 45.27553 3.78603 33045 ft 404 kts 232°
2026-05-08 20:49 45.24283 3.72162 33047 ft 404 kts 232°
2026-05-08 20:49 45.21058 3.65620 33051 ft 404 kts 233°
2026-05-08 20:50 45.17869 3.59082 33047 ft 404 kts 232°
2026-05-08 20:50 45.14670 3.52582 33052 ft 404 kts 232°
2026-05-08 20:51 45.11439 3.46054 33055 ft 403 kts 232°
2026-05-08 20:51 45.08227 3.39581 33063 ft 403 kts 232°
2026-05-08 20:52 45.04991 3.33093 33062 ft 402 kts 231°
2026-05-08 20:52 45.01776 3.26659 33065 ft 402 kts 231°
2026-05-08 20:53 44.98545 3.20192 33069 ft 401 kts 231°
2026-05-08 20:53 44.95338 3.13775 33069 ft 400 kts 231°
2026-05-08 20:54 44.92133 3.07387 33071 ft 400 kts 231°
2026-05-08 20:54 44.88906 3.00974 33067 ft 399 kts 231°
2026-05-08 20:55 44.85693 2.94617 33061 ft 399 kts 231°
2026-05-08 20:55 44.82552 2.88187 33054 ft 400 kts 233°
2026-05-08 20:56 44.79550 2.81565 33056 ft 400 kts 234°
2026-05-08 20:56 44.76573 2.74980 33048 ft 400 kts 233°
2026-05-08 20:57 44.73563 2.68445 33043 ft 399 kts 233°
2026-05-08 20:57 44.70514 2.61888 33041 ft 399 kts 233°
2026-05-08 20:58 44.67495 2.55401 33040 ft 398 kts 233°
2026-05-08 20:58 44.64452 2.48870 33036 ft 398 kts 233°
2026-05-08 20:59 44.61439 2.42397 33048 ft 397 kts 234°
2026-05-08 20:59 44.58415 2.35902 33045 ft 396 kts 234°
2026-05-08 21:00 44.55405 2.29501 33053 ft 395 kts 234°
2026-05-08 21:00 44.52386 2.23076 33051 ft 394 kts 234°
2026-05-08 21:01 44.49372 2.16672 33047 ft 393 kts 234°
2026-05-08 21:01 44.46365 2.10291 33035 ft 391 kts 234°
2026-05-08 21:02 44.43380 2.03981 33031 ft 390 kts 234°
2026-05-08 21:02 44.40375 1.97653 33027 ft 389 kts 234°
2026-05-08 21:03 44.37393 1.91380 33022 ft 388 kts 235°
2026-05-08 21:03 44.34395 1.85093 33014 ft 387 kts 235°
2026-05-08 21:04 44.31533 1.78731 33004 ft 387 kts 243°
2026-05-08 21:04 44.30638 1.75222 33004 ft 390 kts 254°
2026-05-08 21:04 44.30254 1.71463 33000 ft 393 kts 265°
2026-05-08 21:05 44.30878 1.63838 32992 ft 397 kts 276°
2026-05-08 21:05 44.31804 1.56234 32985 ft 397 kts 276°
2026-05-08 21:06 44.32710 1.48646 32722 ft 399 kts 276°
2026-05-08 21:06 44.33162 1.44825 32463 ft 399 kts 276°
2026-05-08 21:06 44.33616 1.40983 32203 ft 400 kts 276°
2026-05-08 21:06 44.34068 1.37154 31947 ft 399 kts 276°
2026-05-08 21:07 44.34516 1.33364 31699 ft 398 kts 276°
2026-05-08 21:07 44.34966 1.29558 31445 ft 397 kts 276°
2026-05-08 21:07 44.35412 1.25766 31194 ft 395 kts 276°
2026-05-08 21:07 44.35859 1.21967 30943 ft 394 kts 276°
2026-05-08 21:08 44.36301 1.18196 30695 ft 392 kts 276°
2026-05-08 21:08 44.36739 1.14432 30449 ft 391 kts 276°
2026-05-08 21:08 44.37172 1.10683 30208 ft 388 kts 276°
2026-05-08 21:08 44.37734 1.07035 29422 ft 393 kts 286°
2026-05-08 21:09 44.39022 1.03616 28251 ft 401 kts 300°
2026-05-08 21:09 44.40556 1.00396 27199 ft 401 kts 300°
2026-05-08 21:09 44.42088 0.97198 26734 ft 387 kts 300°
2026-05-08 21:09 44.43570 0.94118 26308 ft 374 kts 300°
2026-05-08 21:10 44.44996 0.91143 25897 ft 362 kts 300°
2026-05-08 21:10 44.46374 0.88247 25473 ft 350 kts 300°
2026-05-08 21:10 44.47681 0.85482 25076 ft 341 kts 300°
2026-05-08 21:10 44.48994 0.82691 24669 ft 342 kts 300°
2026-05-08 21:11 44.50307 0.79898 24238 ft 341 kts 300°
2026-05-08 21:11 44.51596 0.77157 23819 ft 340 kts 300°
2026-05-08 21:11 44.52897 0.74389 23357 ft 340 kts 300°
2026-05-08 21:11 44.54198 0.71618 22897 ft 338 kts 300°
2026-05-08 21:12 44.55487 0.68868 22467 ft 336 kts 300°
2026-05-08 21:12 44.56752 0.66168 22047 ft 334 kts 300°
2026-05-08 21:12 44.58031 0.63443 21629 ft 332 kts 300°
2026-05-08 21:12 44.59301 0.60741 21212 ft 331 kts 300°
2026-05-08 21:13 44.60570 0.58040 20796 ft 330 kts 300°
2026-05-08 21:13 44.61818 0.55383 20391 ft 329 kts 300°
2026-05-08 21:13 44.63078 0.52695 19984 ft 328 kts 300°
2026-05-08 21:13 44.64335 0.50008 19575 ft 328 kts 300°
2026-05-08 21:14 44.65581 0.47319 19114 ft 328 kts 298°
2026-05-08 21:14 44.66684 0.44503 18282 ft 340 kts 294°
2026-05-08 21:14 44.67785 0.41468 17290 ft 353 kts 293°
2026-05-08 21:14 44.68882 0.38336 16659 ft 356 kts 293°
2026-05-08 21:15 44.69957 0.35242 16276 ft 350 kts 293°
2026-05-08 21:15 44.71016 0.32203 15844 ft 348 kts 293°
2026-05-08 21:15 44.72084 0.29150 15404 ft 345 kts 293°
2026-05-08 21:15 44.73146 0.26124 14959 ft 343 kts 294°
2026-05-08 21:16 44.74198 0.23136 14382 ft 338 kts 294°
2026-05-08 21:16 44.75237 0.20192 13846 ft 331 kts 294°
2026-05-08 21:16 44.76233 0.17377 13419 ft 319 kts 294°
2026-05-08 21:16 44.77209 0.14619 13032 ft 308 kts 294°
2026-05-08 21:17 44.78149 0.11959 12662 ft 297 kts 294°
2026-05-08 21:17 44.79043 0.09426 12302 ft 287 kts 294°
2026-05-08 21:17 44.79926 0.06912 11946 ft 285 kts 294°
2026-05-08 21:17 44.80803 0.04406 11588 ft 286 kts 294°
2026-05-08 21:18 44.81684 0.01889 11220 ft 286 kts 294°
2026-05-08 21:18 44.82552 -0.00591 10858 ft 286 kts 294°
2026-05-08 21:18 44.83433 -0.03109 10486 ft 286 kts 294°
2026-05-08 21:18 44.84315 -0.05632 10103 ft 286 kts 294°
2026-05-08 21:19 44.85183 -0.08124 9714 ft 286 kts 294°
2026-05-08 21:19 44.86060 -0.10647 9303 ft 286 kts 294°
2026-05-08 21:19 44.86934 -0.13162 8904 ft 285 kts 294°
2026-05-08 21:19 44.87805 -0.15659 8507 ft 283 kts 294°
2026-05-08 21:20 44.88632 -0.18188 8082 ft 282 kts 287°
2026-05-08 21:20 44.89028 -0.20871 7664 ft 278 kts 272°
2026-05-08 21:20 44.89110 -0.23552 7240 ft 278 kts 270°
2026-05-08 21:20 44.89190 -0.26273 6803 ft 277 kts 271°
2026-05-08 21:21 44.89273 -0.28986 6465 ft 273 kts 271°
2026-05-08 21:21 44.89356 -0.31601 6343 ft 261 kts 271°
2026-05-08 21:21 44.89487 -0.34088 6203 ft 250 kts 279°
2026-05-08 21:21 44.90087 -0.36349 5984 ft 245 kts 300°
2026-05-08 21:22 44.91172 -0.38208 5563 ft 249 kts 315°
2026-05-08 21:22 44.92419 -0.39907 5213 ft 247 kts 315°
2026-05-08 21:22 44.93662 -0.41618 4781 ft 250 kts 315°
2026-05-08 21:22 44.94888 -0.43314 4532 ft 243 kts 315°
2026-05-08 21:23 44.96073 -0.44951 4377 ft 234 kts 315°
2026-05-08 21:23 44.97205 -0.46573 4100 ft 231 kts 308°
2026-05-08 21:23 44.97781 -0.48673 3515 ft 236 kts 267°
2026-05-08 21:23 44.97292 -0.50769 3188 ft 220 kts 230°
2026-05-08 21:24 44.96292 -0.52272 3054 ft 202 kts 222°
2026-05-08 21:24 44.95312 -0.53680 3032 ft 201 kts 223°
2026-05-08 21:24 44.94334 -0.55087 2991 ft 201 kts 223°
2026-05-08 21:24 44.93361 -0.56487 2796 ft 199 kts 223°
2026-05-08 21:25 44.92407 -0.57858 2546 ft 198 kts 223°
2026-05-08 21:25 44.91443 -0.59242 2296 ft 196 kts 223°
2026-05-08 21:25 44.90504 -0.60591 2041 ft 190 kts 223°
2026-05-08 21:25 44.89601 -0.61887 1820 ft 181 kts 222°
2026-05-08 21:26 44.88734 -0.63132 1561 ft 173 kts 223°
2026-05-08 21:26 44.87941 -0.64270 1345 ft 153 kts 223°
2026-05-08 21:26 44.87229 -0.65292 1145 ft 141 kts 222°
2026-05-08 21:26 44.86552 -0.66245 960 ft 135 kts 221°
2026-05-08 21:27 44.85895 -0.67183 737 ft 134 kts 223°
2026-05-08 21:27 44.85252 -0.68108 581 ft 131 kts 223°
2026-05-08 21:27 44.84618 -0.69027 392 ft 130 kts 224°
2026-05-08 21:27 44.83989 -0.69929 237 ft 129 kts 225°
2026-05-08 21:28 44.83579 -0.70513 166 ft 119 kts 225°
2026-05-08 21:28 44.83102 -0.71197 168 ft 74 kts 225°
2026-05-08 21:28 44.82843 -0.71568 171 ft 41 kts 225°
2026-05-08 21:28 44.82673 -0.71811 174 ft 25 kts 225°
2026-05-08 21:29 44.82567 -0.71930 171 ft 17 kts 189°
2026-05-08 21:29 44.82505 -0.71865 171 ft 11 kts 126°
2026-05-08 21:29 44.82458 -0.71769 171 ft 12 kts 124°
2026-05-08 21:29 44.82440 -0.71694 171 ft 7 kts 70°
2026-05-08 21:30 44.82477 -0.71641 171 ft 8 kts 44°
2026-05-08 21:30 44.82520 -0.71580 171 ft 9 kts 45°
2026-05-08 21:30 44.82585 -0.71487 171 ft 11 kts 45°
2026-05-08 21:30 44.82622 -0.71435 171 ft 12 kts 45°
2026-05-08 21:31 44.82681 -0.71351 171 ft 13 kts 45°
2026-05-08 21:31 44.82746 -0.71258 170 ft 14 kts 45°
2026-05-08 21:31 44.82821 -0.71150 170 ft 15 kts 45°
2026-05-08 21:31 44.82895 -0.71044 170 ft 14 kts 45°
2026-05-08 21:32 44.82938 -0.70946 170 ft 12 kts 87°
2026-05-08 21:32 44.82918 -0.70830 170 ft 13 kts 106°
2026-05-08 21:32 44.82892 -0.70706 170 ft 14 kts 106°
2026-05-08 21:32 44.82864 -0.70572 170 ft 15 kts 106°
2026-05-08 21:33 44.82834 -0.70430 170 ft 16 kts 106°
2026-05-08 21:33 44.82802 -0.70275 170 ft 17 kts 105°
2026-05-08 21:33 44.82821 -0.70178 170 ft 5 kts 23°
2026-05-08 21:33 44.82847 -0.70146 170 ft 5 kts 84°
2026-05-08 21:34 44.82837 -0.70090 170 ft 6 kts 107°
2026-05-08 21:34 44.82845 -0.70042 169 ft 5 kts 47°
2026-05-08 21:34 44.82871 -0.70035 169 ft 3 kts
2026-05-08 21:34 44.82875 -0.70033 169 ft 0 kts 14°